CW1656 Weather Reports


Display with metric or nautical units.
time (UTC)temp
F
wind
direction
speed
MPH
gust
MPH
rain 1hr
in
rain 24hr
in
rain mn
in
humidity
%
barometer
mb
20260507141507 44 261 1.0 6.0 0.00 0.12 0.00 79 1014.7
20260507140002 42 186 0.0 0.0 0.00 0.12 0.00 80 1014.7
20260507134610 41 195 0.0 1.0 0.00 0.15 0.00 86 1014.9
20260507133105 42 293 0.0 2.0 0.00 0.15 0.00 88 1015.1
20260507131620 41 286 0.0 2.0 0.00 0.15 0.00 93 1015.2
20260507130100 40 283 0.0 0.0 0.00 0.15 0.00 96 1015.2
20260507124601 39 283 0.0 3.0 0.00 0.19 0.00 96 1015.2
20260507123101 39 272 0.0 4.0 0.00 0.19 0.00 97 1015.1
20260507121557 39 296 0.0 7.0 0.00 0.19 0.00 97 1015.1
20260507120052 40 273 0.0 1.0 0.00 0.19 0.00 98 1015.2
20260507114549 40 277 0.0 0.0 0.00 0.22 0.00 98 1014.9
20260507113105 40 277 0.0 0.0 0.00 0.22 0.00 98 1014.9
20260507111544 39 277 0.0 2.0 0.00 0.22 0.00 98 1014.5
20260507110043 39 277 0.0 1.0 0.00 0.22 0.00 98 1014.4
20260507104552 39 277 0.0 0.0 0.00 0.28 0.00 98 1014.7
20260507103041 38 277 0.0 0.0 0.00 0.28 0.00 98 1014.5
20260507101540 38 277 0.0 1.0 0.00 0.28 0.00 98 1014.3
20260507100052 37 277 0.0 0.0 0.00 0.28 0.00 97 1014.4
20260507094540 37 277 0.0 0.0 0.00 0.33 0.00 97 1014.2
20260507093040 36 277 0.0 0.0 0.00 0.33 0.00 97 1014.3
20260507091541 36 277 0.0 0.0 0.00 0.33 0.00 97 1014.5
20260507090036 36 277 0.0 0.0 0.00 0.33 0.00 97 1014.3
20260507084548 37 277 0.0 0.0 0.00 0.38 0.00 97 1014.1
20260507083032 37 277 0.0 0.0 0.00 0.38 0.00 97 1014.0
20260507081531 37 277 0.0 0.0 0.00 0.38 0.00 97 1014.5
20260507080028 37 277 0.0 0.0 0.00 0.38 0.00 97 1014.4
20260507074524 39 277 0.0 0.0 0.00 0.47 0.00 97 1014.1
20260507073025 39 277 0.0 0.0 0.00 0.47 0.00 97 1014.2
20260507071521 39 277 0.0 0.0 0.00 0.47 0.00 97 1014.3
20260507070022 40 277 0.0 0.0 0.00 0.47 0.00 97 1014.7
20260507064517 40 277 0.0 0.0 0.00 0.56 0.00 97 1014.5
20260507063016 40 277 0.0 0.0 0.00 0.56 0.00 97 1014.5
20260507061514 41 277 0.0 0.0 0.00 0.56 0.00 97 1014.4
20260507060022 41 277 0.0 0.0 0.00 0.56 0.00 97 1014.4
20260507054510 41 277 0.0 0.0 0.00 0.71 0.00 97 1014.7
20260507053009 41 277 0.0 0.0 0.00 0.71 0.00 97 1014.9
20260507051507 41 277 0.0 2.0 0.00 0.71 0.00 97 1015.0
20260507050112 41 279 0.0 0.0 0.00 0.71 0.00 97 1014.9
20260507044503 41 279 0.0 0.0 0.00 0.82 0.00 97 1015.1
20260507043002 41 279 0.0 0.0 0.00 0.82 0.00 97 1015.0
20260507041601 41 279 0.0 0.0 0.00 0.82 0.00 97 1015.0
20260507040103 41 279 0.0 1.0 0.00 0.82 0.00 97 1014.9
20260507034559 42 277 0.0 3.0 0.00 0.88 0.82 97 1014.7
20260507033055 42 279 0.0 4.0 0.00 0.88 0.82 97 1014.6
20260507031555 42 281 0.0 5.0 0.00 0.88 0.82 97 1014.7
20260507030054 42 289 0.0 4.0 0.00 0.88 0.82 97 1014.6
20260507024554 42 277 0.0 4.0 0.00 0.88 0.82 97 1014.5
20260507023052 42 296 0.0 0.0 0.00 0.88 0.82 96 1014.5
20260507021559 42 301 0.0 0.0 0.00 0.88 0.82 96 1014.6
20260507020051 42 292 0.0 0.0 0.00 0.88 0.82 96 1014.7
20260507014549 42 293 0.0 0.0 0.00 0.92 0.82 96 1014.4
20260507013048 42 293 0.0 0.0 0.00 0.92 0.82 96 1014.2
20260507011550 42 288 0.0 0.0 0.00 0.92 0.82 96 1014.5
20260507010047 42 298 0.0 3.0 0.00 0.92 0.82 96 1014.4
20260507004545 42 279 2.0 7.0 0.00 0.95 0.82 96 1014.3
20260507003042 42 227 0.0 8.0 0.00 0.95 0.82 95 1014.1
20260507001540 42 280 0.0 5.0 0.02 0.95 0.82 95 1013.8
20260507000037 43 294 2.0 9.0 0.04 0.95 0.82 95 1013.5
20260506234543 43 278 0.0 6.0 0.07 0.99 0.82 94 1013.2
20260506233033 44 34 2.0 7.0 0.10 0.99 0.82 94 1013.1
20260506231532 45 304 3.0 15.0 0.08 0.97 0.80 93 1013.1
20260506230032 47 275 0.0 4.0 0.07 0.95 0.78 94 1012.3
20260506224528 48 165 0.0 1.0 0.04 0.96 0.75 93 1012.1
20260506223025 48 165 0.0 0.0 0.01 0.93 0.72 92 1011.8
20260506221525 48 165 0.0 0.0 0.01 0.93 0.72 91 1011.8
20260506220031 49 165 0.0 0.0 0.00 0.92 0.71 89 1011.7
20260506214525 49 165 0.0 2.0 0.00 0.98 0.71 88 1011.5
20260506213029 49 165 0.0 2.0 0.00 0.98 0.71 87 1011.4
20260506211527 49 165 0.0 0.0 0.00 0.98 0.71 88 1011.4
20260506210030 49 165 1.0 2.0 0.00 0.98 0.71 88 1011.4
20260506204531 49 165 0.0 2.0 0.00 0.98 0.71 88 1011.6
20260506203028 49 173 0.0 2.0 0.00 0.98 0.71 87 1011.6
20260506201526 49 173 0.0 3.0 0.00 0.98 0.71 87 1011.7
20260506200022 49 158 0.0 2.0 0.00 0.98 0.71 88 1011.5
20260506194519 49 195 0.0 2.0 0.00 0.98 0.71 89 1011.5
20260506193018 48 44 0.0 2.0 0.00 0.98 0.71 89 1011.4
20260506191517 47 301 0.0 3.0 0.00 0.98 0.71 91 1011.5
20260506190017 47 290 0.0 2.0 0.00 0.98 0.71 91 1011.5
20260506184516 47 296 1.0 3.0 0.00 0.98 0.71 92 1011.8
20260506183015 46 290 0.0 7.0 0.00 0.98 0.71 93 1011.8
20260506181520 46 277 1.0 3.0 0.00 0.98 0.71 93 1011.7
20260506180016 46 59 0.0 3.0 0.00 0.98 0.71 94 1011.9
20260506174514 46 275 0.0 3.0 0.00 0.98 0.71 95 1011.8
20260506173011 46 325 1.0 3.0 0.00 0.98 0.71 96 1011.5
20260506171517 46 19 0.0 0.0 0.00 0.98 0.71 96 1011.3
20260506170008 46 112 0.0 0.0 0.00 0.98 0.71 97 1011.0
20260506164507 45 58 0.0 0.0 0.00 0.98 0.71 97 1011.1
20260506163007 45 355 0.0 0.0 0.00 0.98 0.71 97 1011.1
20260506161508 45 265 0.0 0.0 0.00 0.98 0.71 97 1011.1
20260506160005 44 40 0.0 0.0 0.00 0.98 0.71 97 1011.1
20260506154505 45 271 0.0 0.0 0.00 0.98 0.71 98 1011.1
20260506153003 44 269 0.0 0.0 0.00 0.98 0.71 97 1011.1
20260506151501 45 44 0.0 0.0 0.01 0.98 0.71 98 1010.9
20260506150002 44 44 0.0 0.0 0.01 0.98 0.71 98 1010.8
20260506144622 44 44 0.0 0.0 0.01 0.99 0.71 98 1010.8
20260506143104 44 44 0.0 0.0 0.02 0.99 0.71 98 1010.7